ATLAS AGENA D R/B, 4511

Orbit data source: Space-Track

ATLAS AGENA D R/B, 4511 is space debris in GEO originally from a launch on Fri, 19 Jun 1970 UTC launched from the Air Force Eastern Test Range (AFETR). Debris objects in space refer to the collection of defunct objects orbiting the Earth. Examples of debris include non-operational satellites, rocket bodies, and fragments generated from explosions, collisions, or faulty payload assembly.

Loading next visibility...
Identifier
4511, 1970-046B
Orbit
GEO
Country
Flag of USUS
Related business
Manufacturer
LMSC
Mission
Spacecraft
Bus & Motor
AGENA D, Unknown motor
Mass
600 kg wet, 600 kg dry
Launch date (UTC)
1970-06-19 (56 years ago)
Launch vehicle
Unknown
Launch site
Air Force Eastern Test Range (AFETR)
Object type
Payload
Rocket body
Debris
Shape & HBR
CYL, 1.1 m
Radar Cross Section
Medium (>0.1 m² and <1 m²)

Expand to show TLE details & history
Last TLE update: 18 hours ago

TLE from 18 hours ago
0 ATLAS AGENA D R/B
1 04511U 70046B   26266.55754217 -.00000019  00000-0  00000-0 0  9997
2 04511   1.9466  82.7913 0030672 310.9598  49.5301  1.00442283 26545
Epoch: 2026-09-23T13:22Z
TLE epoch observation values (Epoch: 2026-09-23T13:22:51.643Z)
Latitude
Longitude
-119.59221°
Altitude
35,655.075 km
Speed
3.083 km/s
True Right ascension
05h 34m 07s
True Declination
0° 00' 00"
Sunlit
Object was in daylight at epoch
Visualization orbit readout
Latitude
Unknown
Longitude
Unknown
Altitude
Unknown
Speed
Unknown
Apparent Right ascension
Unknown
Apparent Declination
Unknown
Sunlit
N/A
Visualization observer readout
Local Sidereal Time
00:28:50
Azimuth
Unknown
Elevation
Unknown
Doppler factor
Unknown
Orbital elements
Apogee altitude
35,869.12 km
Perigee altitude
35,610.751 km
Semi-major axis
42,118.073 km
Eccentricity
0.00307
Inclination
1.9466°
RAAN
82.7913°
Arg. of periapsis
310.9598°
True anomaly
49.79815°
Mean anomaly
49.5301°
Eccentric anomaly
49.66406°
Mean motion
0.2511 °/min
Orbital period
1,433.71 mins
BSTAR
0
Loading maneuver chart data...
Computing Atmospheric mass density...
Loading historical data...
Loading historical data...
Loading historical data...
Loading historical data...
Loading historical data...
Loading historical data...
Loading historical data...
Other satellites on launch #46 in the year 1970 (1970-06-19 UTC)

Documentation

Showing up to 5 results
|